Printer-friendly version

IAU Minor Planet Center

Minor Planet Center

MPEC 2004-F18 : 2003 CA

The following Minor Planet Electronic Circular may be linked-to from your own Web pages, but must not otherwise be redistributed electronically.


Read MPEC 2004-F17 Read MPEC 2004-F19


M.P.E.C. 2004-F18                                Issued 2004 Mar. 17, 13:39 UT

     The Minor Planet Electronic Circulars contain information on unusual
         minor planets and routine data on comets.  They are published
   on behalf of Commission 20 of the International Astronomical Union by the
          Minor Planet Center, Smithsonian Astrophysical Observatory,
                          Cambridge, MA 02138, U.S.A.

         Supported in part by the Steven and Michele Kirsch Foundation
             Prepared using the Tamkin Foundation Computer Network

                              MPC@CFA.HARVARD.EDU
          URL http://cfa-www.harvard.edu/iau/mpc.html  ISSN 1523-6714

                                    2003 CA

                           Revision to MPEC 2003-C16

Additional Observations:
     K03C00A HC2004 03 15.47835 16 50 38.10 +09 13 46.0          23   V EF018291
     K03C00A HC2004 03 15.48224 16 50 38.52 +09 13 48.7          21.7 V EF018291
     K03C00A HC2004 03 15.48607 16 50 38.84 +09 13 53.3          22.5 V EF018291
     K03C00A HC2004 03 17.48955 16 53 41.59 +09 49 41.6          23   V EF018291
     K03C00A HC2004 03 17.50136 16 53 42.64 +09 49 54.8          23   V EF018291
     K03C00A HC2004 03 17.51247 16 53 43.60 +09 50 06.9          23   V EF018291

Observer details:
291 LPL/Spacewatch II.  Observers M. Block, J. V. Scotti.  1.8-m f/2.7
    reflector + CCD.

First and last observations above in comparison with prediction:
Residuals in seconds of arc, reference and Delta-T
040315 291  0.9+  1.3+    040317 291  1.0+  0.6-    MPO 48324   -0.00033 day

Orbital elements:
2003 CA
Epoch 2004 July 14.0 TT = JDT 2453200.5                 MPC
M   3.08154              (2000.0)            P               Q
n   0.60852759     Peri.  234.56111     +0.95551262     -0.04849668
a   1.3791639      Node   126.40940     +0.10269111     +0.97937453
e   0.7196900      Incl.   21.19250     -0.27649625     +0.19614687
P   1.62           H   19.1           G   0.15           U   4
Residuals in seconds of arc
030201 704  0.1-  0.1+    030202 587  0.1-  0.0     030208 118  0.2-  0.0
030201 704  0.2+  0.4+    030202 587  0.2-  0.1-    030208 118  0.2-  0.2-
030201 704  0.1-  0.3+    030202 587  0.0   0.0     030208 118  0.4-  0.1+
030201 704  0.0   0.4+    030202 587  0.4-  0.2-    030208 118  0.4-  0.1+
030201 704  0.1+  0.3+    030202 170  0.6-  0.7+    030208 941  0.3+  0.6+
030202 246  0.4+  0.2-    030202 170  0.1+  0.1+    030208 941  0.1-  0.3+
030202 246  0.2+  0.1-    030202 170  1.0-  0.6-    030208 941  0.3+  0.0
030202 246  0.2+  0.1-    030202 170  0.4-  0.1-    030208 941  0.8-  0.1-
030202 246  0.0   0.2+    030202 170  0.6+  0.1-    030208 941  0.7-  0.1+
030202 246  0.4+  0.1-    030202 170  0.3-  0.5-    030208 941  0.5-  0.4-
030202 J95  0.1+  0.3+    030202 170  0.4-  0.4+    030208 176  0.2-  0.2-
030202 246  0.3+  0.2-    030202 170  0.8+  0.1+    030208 046  0.1+  0.0
030202 J95  0.1-  0.3-    030203 704  0.0   0.1-    030208 176  0.2-  0.1-
030202 J95  0.1+  0.1+    030203 704  0.1+  0.1+    030208 046  0.8-  0.6+
030202 941  0.3-  0.8+    030203 704  0.3+  0.2-    030208 046  0.1-  1.2-
030202 941  0.2+  0.0     030203 670  0.5-  0.2-    030208 176  0.2-  0.1-
030202 557  0.1-  0.2-    030203 704  0.1-  0.0     030208 046  0.7-  0.6+
030202 946  0.1+  0.0     030203 704  0.1+  0.1-    030208 176  0.2-  0.1-
030202 941  0.0   0.2+    030203 670  1.0+  0.4-    030208 176  0.2-  0.1-
030202 557  0.1-  0.2-    030203 670  0.3+  0.1+    030217 711 (3.1+  1.4+)
030202 557  0.1-  0.0     030203 670  0.4-  1.5-    030217 711  1.8-  0.7-
030202 941  0.2+  0.3+    030203 084  0.7+  0.6+    030217 711  0.2-  0.9-
030202 946  0.2+  0.8+    030203 J95  0.2-  0.3+    030218 J95  0.4+  0.7-
030202 557  0.1-  0.0     030203 J95  0.1-  0.2+    030218 J95  0.4+  0.6-
030202 557  0.0   0.1+    030203 J95  0.2-  0.3+    030219 246  0.1-  0.0
030202 946  0.3-  0.3-    030204 446  0.2+  0.7+    030219 246  0.2-  0.1+
030202 048  0.8-  0.4+    030204 699  0.6-  0.2+    030219 246  0.1+  0.4+
030202 048  0.3-  0.4-    030204 699  0.0   0.3+    030219 246  0.3-  0.3+
030202 048  1.2-  0.4-    030204 446  0.6-  0.4-    030219 246  0.0   0.0
030202 048  0.5+  0.3+    030204 446  0.7-  0.6-    030219 246  0.3-  0.2+
030202 048  0.4-  0.4+    030204 446  0.3-  0.0     030220 113  0.1+  0.1-
030202 048  0.2+  0.1-    030204 699  0.6+  0.4-    030220 113  0.0   0.1-
030202 048  0.7-  0.5-    030204 699  0.3-  0.4+    030220 113  0.0   0.2-
030202 048  0.0   0.7-    030204 084  1.0-  0.3-    030222 858  0.4+  0.4-
030202 118  0.0   0.2-    030204 084  0.4-  0.2+    030222 858  0.0   0.2-
030202 118  0.2+  0.1-    030204 441  0.2-  0.7-    030222 858  0.2-  0.5-
030202 118  0.1+  0.3-    030204 441  0.1-  0.2+    030222 240 (1.1-  3.6+)
030202 118  0.3-  0.1-    030204 441  0.1-  0.0     030222 240  1.2+  0.4+
030202 446  0.5+  0.2-    030204 441  0.0   0.1-    030222 240  0.0   0.2-
030202 446  0.2+  0.2-    030204 441  0.7+  0.1+    030222 240  0.3+  0.5-
030202 858  0.3+  0.3-    030204 441  0.9+  0.1+    030225 246  0.7+  0.2+
030202 858  0.7-  0.3-    030204 441  0.1+  0.1-    030225 246  0.5-  0.4+
030202 858  0.6+  0.5-    030204 170  0.0   0.5-    030225 246  0.2-  0.3+
030202 704  0.1-  0.4+    030204 170  0.5-  0.8+    030225 246  0.6+  0.2-
030202 704  0.7+  0.1-    030204 170  1.3+  0.5-    030225 246  0.2+  0.1-
030202 644  0.1+  0.7+    030204 170  0.7+  1.0+    030225 246  0.3-  0.1+
030202 704  0.5+  0.2-    030205 441  0.7+  0.6-    030308 858  0.3-  0.2-
030202 644  0.0   0.7+    030205 441  0.5+  1.4-    030308 858  0.2-  0.0
030202 704  0.6+  0.2+    030205 441  0.3-  0.8-    030326 696  0.1-  0.1+
030202 704  0.1-  0.3+    030205 441  0.7-  0.6-    030326 696  0.1-  0.8-
030202 704  0.4+  0.2-    030206 J95  1.5+  0.3+    040315 291  0.4-  1.3+
030202 704  0.2-  0.4+    030206 J95  0.4+  0.1+    040315 291  0.7+  0.1-
030202 644  0.0   0.9+    030206 J95  0.1+  0.2+    040315 291  0.4+  0.5+
030202 704  0.2+  0.1+    030206 670  0.2-  0.2-    040317 291  0.1-  0.6-
030202 704  0.2+  0.5+    030206 670  0.2+  0.4+    040317 291  0.1-  0.4-
030202 926  0.1+  0.5-    030206 670  0.4+  0.1-    040317 291  0.4-  0.6-
030202 926  0.3+  0.3-    030208 118  0.0   0.0

Ephemeris:
2003 CA                  a,e,i = 1.38, 0.72, 21                  q = 0.3866
Date    TT    R. A. (2000) Decl.     Delta      r     Elong.  Phase     V
2004 03 16    16 51.43   +09 22.9    1.171    1.701   103.3    34.7    22.0
2004 03 26    17 06.63   +12 45.0    1.008    1.617   107.5    36.0    21.6
2004 04 05    17 22.10   +17 08.1    0.854    1.527   110.6    37.8    21.2
2004 04 15    17 38.61   +22 53.5    0.711    1.429   111.8    40.7    20.7
2004 04 25    17 57.94   +30 34.9    0.581    1.323   110.1    45.6    20.3
2004 05 05    18 25.30   +41 04.4    0.467    1.209   104.0    54.0    19.8
2004 05 15    19 19.48   +55 18.8    0.376    1.086    91.2    68.5    19.6
2004 05 25    22 10.96   +69 19.9    0.324    0.953    70.2    91.1    19.8

Timothy B. Spahr             (C) Copyright 2004 MPC           M.P.E.C. 2004-F18

Read MPEC 2004-F17 Read MPEC 2004-F19


Our Web policy. Index to the CBAT/MPC/ICQ pages.


Valid HTML 4.01!